WetterOnline ( https://www.wetteronline.de )

Wetter aktuell Schönau im Schwarzwald

Aktuelles Wetter: Feldberg/Schwarzwald (1493m)

6-stündlich | Neueste Meldungen
Ortszeit Temperatur Wetter
Do, 25.07. 8:00 10.1° C wolkenlos
Do, 25.07. 2:00 9.4° C Nebel
Mi, 24.07. 20:00 11.8° C wolkenlos
Mi, 24.07. 14:00 10.4° C bedeckt
Mi, 24.07. 8:00 8.4° C Nebel
Mi, 24.07. 2:00 11.1° C Nebel
Di, 23.07. 20:00 12.8° C Nebel
Di, 23.07. 14:00 13.0° C bewölkt
Ortszeit Temperatur Wetter
Do, 25.07. 12:00 13.9° C leicht bewölkt
Do, 25.07. 11:30 14.3° C leicht bewölkt
Do, 25.07. 11:20 14.3° C leicht bewölkt
Do, 25.07. 11:10 13.1° C leicht bewölkt
Do, 25.07. 11:00 14.0° C wolkig
Do, 25.07. 10:50 14.0° C wolkig
Do, 25.07. 10:30 14.0° C wolkig
Do, 25.07. 10:00 12.2° C fast wolkenlos
Do, 25.07. 9:30 11.6° C wolkenlos
Do, 25.07. 9:00 11.1° C wolkenlos
Ortszeit Relative Feuchte Sichtweite
Do, 25.07. 8:00 86% 40 km
Do, 25.07. 2:00 97% 1.3 km
Mi, 24.07. 20:00 80% 50 km
Mi, 24.07. 14:00 91% 30 km
Mi, 24.07. 8:00 99% 2.1 km
Mi, 24.07. 2:00 100% <100 m
Di, 23.07. 20:00 99% 0.2 km
Di, 23.07. 14:00 85% 35 km
Ortszeit Relative Feuchte Sichtweite
Do, 25.07. 12:00 80% 65 km
Do, 25.07. 11:30 78% 55 km
Do, 25.07. 11:20 78% -
Do, 25.07. 11:10 78% -
Do, 25.07. 11:00 77% 45 km
Do, 25.07. 10:50 77% -
Do, 25.07. 10:30 78% 35 km
Do, 25.07. 10:00 83% 50 km
Do, 25.07. 9:30 85% 35 km
Do, 25.07. 9:00 86% 45 km
Ortszeit Niederschlagsmenge Niederschlagsart
Do, 25.07. 8:00 0.0 l/m2 in 12 Std. -
Do, 25.07. 2:00 0.0 l/m2 in 6 Std. -
Mi, 24.07. 20:00 0.0 l/m2 in 12 Std. -
Mi, 24.07. 14:00 0.0 l/m2 in 6 Std. -
Mi, 24.07. 8:00 5 l/m2 in 12 Std. Regen
Mi, 24.07. 2:00 3 l/m2 in 6 Std. Regen
Di, 23.07. 20:00 0.1 l/m2 in 12 Std. Regen
Di, 23.07. 14:00 0.0 l/m2 in 6 Std. -
Ortszeit Niederschlagsmenge Niederschlagsart
Do, 25.07. 12:00 0.0 l/m2 in 1 Std. -
Do, 25.07. 11:30 0.0 l/m2 in 30 Min -
Do, 25.07. 11:20 keine Meldung -
Do, 25.07. 11:10 keine Meldung -
Do, 25.07. 11:00 0.0 l/m2 in 1 Std. -
Do, 25.07. 10:50 keine Meldung -
Do, 25.07. 10:30 0.0 l/m2 in 30 Min -
Do, 25.07. 10:00 0.0 l/m2 in 1 Std. -
Do, 25.07. 9:30 0.0 l/m2 in 30 Min -
Do, 25.07. 9:00 0.0 l/m2 in 1 Std. -
Ortszeit Stärke Spitze Richtung
km/h Bft. km/h Grad Sektor
Do, 25.07. 8:00 14 3 32 110° O
Do, 25.07. 2:00 18 3 25 120° SO
Mi, 24.07. 20:00 11 2 25 340° N
Mi, 24.07. 14:00 17 3 30 280° W
Mi, 24.07. 8:00 22 4 31 280° W
Mi, 24.07. 2:00 19 3 63 310° NW
Di, 23.07. 20:00 33 5 48 240° SW
Di, 23.07. 14:00 26 4 41 200° S
Ortszeit Stärke Spitze Richtung
km/h Bft. km/h Grad Sektor
Do, 25.07. 12:00 11 2 14 20° N
Do, 25.07. 11:30 7 2 14 60° NO
Do, 25.07. 11:20 7 2 - 60° NO
Do, 25.07. 11:10 7 2 - 30° NO
Do, 25.07. 11:00 7 2 14 40° NO
Do, 25.07. 10:50 7 2 - 40° NO
Do, 25.07. 10:30 6 1 11 40° NO
Do, 25.07. 10:00 7 2 18 120° SO
Do, 25.07. 9:30 11 2 18 100° O
Do, 25.07. 9:00 13 3 20 90° O
Ortszeit Untergrenze Bedeckung Gattung
total tief tief mittel hoch
Do, 25.07. 8:00 - 0/8 0/8 - - -
Do, 25.07. 2:00 <30 m 8/8 0/8 - - -
Mi, 24.07. 20:00 - 0/8 0/8 - - -
Mi, 24.07. 14:00 90 m 8/8 8/8 - - -
Mi, 24.07. 8:00 60 m 8/8 8/8 - - -
Mi, 24.07. 2:00 <30 m 7/8 0/8 - - -
Di, 23.07. 20:00 <30 m 8/8 0/8 - - -
Di, 23.07. 14:00 300 m 7/8 7/8 - - -
Ortszeit Bedeckungsgrad in Achtel und Wolkenuntergrenze
Do, 25.07. 12:00 3(480m)
Do, 25.07. 11:30 3(480m) 5(10500m)
Do, 25.07. 11:20 3(480m) 5(10500m)
Do, 25.07. 11:10 4
Do, 25.07. 11:00 5(420m)
Do, 25.07. 10:50 5(420m)
Do, 25.07. 10:30 6(360m)
Do, 25.07. 10:00 1(300m)
Do, 25.07. 9:30 keine Wolken
Do, 25.07. 9:00 keine Wolken
Ortszeit Stationsdruck (hPa) Tendenz (hPa in 3 Std.)
Do, 25.07. 8:00 852 - 0,3
Do, 25.07. 2:00 854 - 1,0
Mi, 24.07. 20:00 854 - 0,8
Mi, 24.07. 14:00 856 + 0,1
Mi, 24.07. 8:00 855 - 0,2
Mi, 24.07. 2:00 856 0,0
Di, 23.07. 20:00 856 - 0,5
Di, 23.07. 14:00 856 - 0,1
Ortszeit Stationsdruck (hPa) Tendenz (hPa in 3 Std.)
Do, 25.07. 12:00 852 0,0
Do, 25.07. 11:30 852 0,0
Do, 25.07. 11:20 852 keine Meldung
Do, 25.07. 11:10 852 keine Meldung
Do, 25.07. 11:00 852 - 0,1
Do, 25.07. 10:50 852 keine Meldung
Do, 25.07. 10:30 852 0,0
Do, 25.07. 10:00 852 + 0,1
Do, 25.07. 9:30 852 - 0,1
Do, 25.07. 9:00 852 - 0,2
Ortszeit Schneehöhe (cm)
Do, 25.07. 8:00 0
Do, 25.07. 2:00 0
Mi, 24.07. 20:00 0
Mi, 24.07. 14:00 0
Mi, 24.07. 8:00 0
Mi, 24.07. 2:00 0
Di, 23.07. 20:00 0
Di, 23.07. 14:00 0
Ortszeit Schneehöhe (cm)
Do, 25.07. 12:00 0
Do, 25.07. 11:30 0
Do, 25.07. 11:20 0
Do, 25.07. 11:10 -
Do, 25.07. 11:00 0
Do, 25.07. 10:50 0
Do, 25.07. 10:30 0
Do, 25.07. 10:00 0
Do, 25.07. 9:30 0
Do, 25.07. 9:00 0
Link zu dieser Seite / Seite empfehlen

Das Wetter in ...